Weather History for Hof Plauen, Germany

Change the Weather History Date:

Friday, November 9, 2012

  Actual Average Record
Temperature  
Mean Temperature 40 °F -  
Max Temperature 45 °F 41 °F 50 °F (2003)
Min Temperature 35 °F 33 °F 28 °F (2001)
Degree Days  
Heating Degree Days 25    
Moisture  
Dew Point 36 °F    
Average Humidity 84    
Maximum Humidity 97    
Minimum Humidity 55    
Precipitation  
Precipitation 0.00 in - - ()
Sea Level Pressure  
Sea Level Pressure 30.04 in    
Wind  
Wind Speed 7 mph ()    
Max Wind Speed 12 mph    
Max Gust Speed -    
Visibility 5.3 miles    
Events Rain    
Averages and records for this station are not official NWS values.
T = Trace of Precipitation, MM = Missing Value Source: Averaged Metar Reports

Daily Weather History Graph

Daily Weather History Graph

Search for Another Location

Airport:

Trip Planner

Search our weather history database for the weather conditions in past years. The results will help you decide how hot, cold, wet, or windy it might be!

Date:

Astronomy

Nov. 09, 2012 Rise Set
Actual Time 7:16 AM CET 4:35 PM CET
Civil Twilight 6:41 AM CET 5:10 PM CET
Nautical Twilight 6:02 AM CET 5:49 PM CET
Astronomical Twilight 5:24 AM CET 6:27 PM CET
Moon 1:27 AM CET (11/9) 2:05 PM CET (11/9)
Length of Visible Light 10h 28m
Length of Day
9h 18m
Waning Crescent, 25% of the Moon is Illuminated
Nov 9
Waning Crescent
Nov 13
New
Nov 20
First Quarter
Nov 28
Full
Dec 6
Last Quarter

Hourly Weather History & Observations

Time (CET) Temp. Windchill Dew Point Humidity Pressure Visibility Wind Dir Wind Speed Gust Speed Precip Events Conditions
12:00 AM 40 °F - 39 °F 97% 30.09 in 2 mi West 8.9 mph - - Rain Light Drizzle
12:20 AM 41.0 °F 35.2 °F 37.4 °F 87% 30.04 in 1.7 mi West 9.2 mph - N/A   Heavy Drizzle
12:50 AM 41.0 °F 35.8 °F 37.4 °F 87% 30.04 in 4.3 mi SW 8.1 mph - N/A Rain Light Rain Showers
1:00 AM 40 °F - 39 °F 96% 30.09 in 3 mi WSW 6.7 mph - - Rain Rain
1:20 AM 41.0 °F 34.7 °F 37.4 °F 87% 30.04 in 3.1 mi WSW 10.4 mph - N/A   Overcast
1:50 AM 41.0 °F 35.8 °F 37.4 °F 87% 30.04 in - WSW 8.1 mph - N/A   Overcast
2:20 AM 41.0 °F 35.8 °F 37.4 °F 87% 30.04 in 3.7 mi SW 8.1 mph - N/A   Overcast
2:50 AM 39.2 °F 32.0 °F 37.4 °F 93% 30.04 in 3.7 mi SSW 11.5 mph - N/A   Overcast
3:00 AM 40 °F - 39 °F 93% 30.09 in 2 mi SW 6.7 mph - -   Mist
3:20 AM 39.2 °F 33.6 °F 37.4 °F 93% 30.04 in 3.1 mi SW 8.1 mph - N/A   Overcast
3:50 AM 39.2 °F 33.6 °F 37.4 °F 93% 30.04 in 3.7 mi WSW 8.1 mph - N/A   Overcast
4:20 AM 39.2 °F 32.5 °F 37.4 °F 93% 30.06 in 3.1 mi WSW 10.4 mph - N/A   Mostly Cloudy
4:50 AM 39.2 °F 33.0 °F 37.4 °F 93% 30.06 in 3.1 mi SW 9.2 mph - N/A Rain Light Rain
5:00 AM 40 °F - 39 °F 93% 30.10 in 3 mi WSW 6.7 mph - - Rain Drizzle
5:20 AM 39.2 °F 33.0 °F 37.4 °F 93% 30.06 in 4.3 mi SW 9.2 mph - N/A   Overcast
5:50 AM 39.2 °F 33.0 °F 37.4 °F 93% 30.06 in 3.7 mi WSW 9.2 mph - N/A   Overcast
6:00 AM 40 °F - 39 °F 94% 30.10 in 3 mi WSW 4.5 mph - -   Mist
6:20 AM 39.2 °F 34.2 °F 37.4 °F 93% 30.04 in 3.1 mi SW 6.9 mph - N/A   Overcast
6:50 AM 39.2 °F 34.2 °F 37.4 °F 93% 30.06 in - WSW 6.9 mph - N/A   Overcast
7:00 AM 40 °F - 39 °F 95% 30.10 in 2 mi WSW 6.7 mph - -   Mist
7:20 AM 41.0 °F 36.4 °F 37.4 °F 87% 30.06 in 3.1 mi SW 6.9 mph - N/A   Overcast
7:50 AM 41.0 °F 35.8 °F 37.4 °F 87% 30.06 in - SW 8.1 mph - N/A   Mostly Cloudy
8:00 AM 40 °F - 39 °F 95% 30.12 in 2 mi SW 6.7 mph - -   Mist
8:20 AM 41.0 °F 34.7 °F 37.4 °F 87% 30.06 in - SSW 10.4 mph - N/A   Mostly Cloudy
8:50 AM 41.0 °F 34.7 °F 37.4 °F 87% 30.09 in - SW 10.4 mph - N/A   Mostly Cloudy
9:00 AM 41 °F - 39 °F 92% 30.13 in 2 mi SW 8.9 mph - -   Mist
9:20 AM 41.0 °F 34.7 °F 37.4 °F 87% 30.09 in - SSW 10.4 mph - N/A   Mostly Cloudy
9:50 AM 41.0 °F 35.2 °F 37.4 °F 87% 30.09 in 2.8 mi SW 9.2 mph - N/A   Overcast
10:20 AM 41.0 °F 34.7 °F 37.4 °F 87% 30.09 in 3.1 mi SW 10.4 mph - N/A   Mostly Cloudy
10:50 AM 41.0 °F 34.7 °F 37.4 °F 87% 30.09 in 3.7 mi SW 10.4 mph - N/A   Mostly Cloudy
11:20 AM 42.8 °F 37.5 °F 37.4 °F 81% 30.09 in 4.3 mi SSW 9.2 mph - N/A   Mostly Cloudy
11:50 AM 42.8 °F 37.5 °F 37.4 °F 81% 30.09 in 5.6 mi SSW 9.2 mph - N/A   Mostly Cloudy
12:20 PM 42.8 °F 38.6 °F 35.6 °F 76% 30.06 in 6.2 mi South 6.9 mph - N/A   Scattered Clouds
12:50 PM 42.8 °F 37.5 °F 35.6 °F 76% 30.06 in 6.2 mi SSW 9.2 mph - N/A   Scattered Clouds
1:00 PM 46 °F - 39 °F 68% 30.09 in 6 mi SSW 6.7 mph - -   Scattered Clouds
1:20 PM 44.6 °F 40.7 °F 35.6 °F 71% 30.06 in 6.2 mi South 6.9 mph - N/A   Scattered Clouds
1:50 PM 44.6 °F 40.7 °F 32.0 °F 61% 30.06 in 6.2 mi SSW 6.9 mph - N/A   Mostly Cloudy
2:00 PM 44 °F - 33 °F 55% 30.09 in 19 mi SSW 6.7 mph - -   Mostly Cloudy
2:20 PM 44.6 °F 40.2 °F 30.2 °F 57% 30.04 in 6.2 mi South 8.1 mph - N/A   Mostly Cloudy
2:50 PM 44.6 °F 40.7 °F 32.0 °F 61% 30.04 in 6.2 mi South 6.9 mph - N/A   Mostly Cloudy
3:00 PM 44 °F - 34 °F 57% 30.07 in 19 mi South 4.5 mph - -   Mostly Cloudy
3:20 PM 42.8 °F 40.1 °F 33.8 °F 70% 30.04 in 6.2 mi South 4.6 mph - N/A   Mostly Cloudy
3:50 PM 42.8 °F 39.3 °F 33.8 °F 70% 30.01 in 6.2 mi SSE 5.8 mph - N/A   Mostly Cloudy
4:20 PM 41.0 °F 37.1 °F 33.8 °F 76% 30.01 in 6.2 mi SSE 5.8 mph - N/A   Mostly Cloudy
5:00 PM 41 °F - 36 °F 75% 30.05 in 12 mi SSE 4.5 mph - -   Clear
5:20 PM 39.2 °F 34.2 °F 33.8 °F 81% 30.01 in - SSE 6.9 mph - N/A   Clear
5:50 PM 37.4 °F 32.8 °F 33.8 °F 87% 30.01 in - SSE 5.8 mph - N/A   Clear
6:00 PM 39 °F - 35 °F 82% 30.04 in 7 mi SE 2.2 mph - -   Clear
6:20 PM 37.4 °F 33.8 °F 33.8 °F 87% 29.98 in 6.2 mi SSE 4.6 mph - N/A   Unknown
6:50 PM 39.2 °F 34.2 °F 33.8 °F 81% 29.98 in 6.2 mi SSE 6.9 mph - N/A   Unknown
7:00 PM 38 °F - 35 °F 87% 30.03 in 6 mi SE 4.5 mph - -   Clear
7:20 PM 37.4 °F 33.8 °F 33.8 °F 87% 29.95 in 6.2 mi SSE 4.6 mph - N/A   Unknown
7:50 PM 37.4 °F 32.8 °F 33.8 °F 87% 29.95 in 5.6 mi SSE 5.8 mph - N/A   Unknown
8:00 PM 39 °F - 36 °F 84% 30.00 in 6 mi SSE 6.7 mph - -   Clear
8:20 PM 37.4 °F 32.8 °F 33.8 °F 87% 29.95 in 5.6 mi SSE 5.8 mph - N/A   Unknown
8:50 PM 37.4 °F 32.1 °F 33.8 °F 87% 29.95 in 6.2 mi SSE 6.9 mph - N/A   Unknown
9:00 PM 39 °F - 36 °F 83% 30.00 in 5 mi SSE 8.9 mph - -   Clear
9:20 PM 37.4 °F 31.4 °F 33.8 °F 87% 29.95 in 6.2 mi SSE 8.1 mph - N/A   Unknown
9:50 PM 37.4 °F 31.4 °F 33.8 °F 87% 29.95 in 5.6 mi SSE 8.1 mph - N/A   Unknown
10:20 PM 37.4 °F 32.1 °F 33.8 °F 87% 29.92 in 6.2 mi SE 6.9 mph - N/A   Unknown
10:50 PM 35.6 °F 29.9 °F 32.0 °F 87% 29.92 in 6.2 mi SE 6.9 mph - N/A   Unknown
11:00 PM 37 °F - 34 °F 86% 29.97 in 5 mi SSE 6.7 mph - -   Overcast
11:20 PM 37.4 °F 32.8 °F 32.0 °F 81% 29.92 in 6.2 mi South 5.8 mph - N/A   Unknown
11:50 PM 37.4 °F 30.3 °F 32.0 °F 81% 29.92 in 6.2 mi SSE 10.4 mph - N/A   Unknown